owner,sensor,date,latitude,longitude,vertical_datum,sea_water_practical_salinity,qcFlag 
DISL,ioos:station:DISL:BSCA:1,2015-03-01T00:00:00Z,30.3288,-87.8293,1.991,18.03,1111122 
DISL,ioos:station:DISL:BSCA:1,2015-03-01T00:30:00Z,30.3288,-87.8293,2.023,17.88,1111122 
DISL,ioos:station:DISL:BSCA:1,2015-03-01T01:00:00Z,30.3288,-87.8293,2.035,17.86,1111122 
DISL,ioos:station:DISL:BSCA:1,2015-03-01T01:30:00Z,30.3288,-87.8293,2.044,17.76,1111122 
DISL,ioos:station:DISL:BSCA:1,2015-03-01T02:00:00Z,30.3288,-87.8293,2.035,17.95,1111122 
DISL,ioos:station:DISL:BSCA:1,2015-03-01T02:30:00Z,30.3288,-87.8293,2.019,17.95,1111122 
DISL,ioos:station:DISL:BSCA:1,2015-03-01T03:00:00Z,30.3288,-87.8293,1.998,17.89,1111122 
DISL,ioos:station:DISL:BSCA:1,2015-03-01T03:30:00Z,30.3288,-87.8293,1.974,17.68,1111122 
DISL,ioos:station:DISL:BSCA:1,2015-03-01T04:00:00Z,30.3288,-87.8293,1.948,17.48,1111122 
DISL,ioos:station:DISL:BSCA:1,2015-03-01T04:30:00Z,30.3288,-87.8293,1.915,17.45,1111122 
DISL,ioos:station:DISL:BSCA:1,2015-03-01T05:00:00Z,30.3288,-87.8293,1.882,17.46,1111122 
DISL,ioos:station:DISL:BSCA:1,2015-03-01T05:30:00Z,30.3288,-87.8293,1.844,17.47,1111122 
DISL,ioos:station:DISL:BSCA:1,2015-03-01T06:00:00Z,30.3288,-87.8293,1.81,17.48,1111122 
DISL,ioos:station:DISL:BSCA:1,2015-03-01T06:30:00Z,30.3288,-87.8293,1.775,17.62,1111122 
DISL,ioos:station:DISL:BSCA:1,2015-03-01T07:00:00Z,30.3288,-87.8293,1.76,17.71,1111122 
DISL,ioos:station:DISL:BSCA:1,2015-03-01T07:30:00Z,30.3288,-87.8293,1.733,17.67,1111122 
DISL,ioos:station:DISL:BSCA:1,2015-03-01T08:00:00Z,30.3288,-87.8293,1.709,17.63,1111122 
DISL,ioos:station:DISL:BSCA:1,2015-03-01T08:30:00Z,30.3288,-87.8293,1.681,17.64,1111122 
DISL,ioos:station:DISL:BSCA:1,2015-03-01T09:00:00Z,30.3288,-87.8293,1.661,17.63,1111122 
DISL,ioos:station:DISL:BSCA:1,2015-03-01T09:30:00Z,30.3288,-87.8293,1.649,17.64,1111122 
DISL,ioos:station:DISL:BSCA:1,2015-03-01T10:00:00Z,30.3288,-87.8293,1.641,17.65,1111122 
DISL,ioos:station:DISL:BSCA:1,2015-03-01T10:30:00Z,30.3288,-87.8293,1.627,17.68,1111122 
DISL,ioos:station:DISL:BSCA:1,2015-03-01T11:00:00Z,30.3288,-87.8293,1.609,17.68,1111122 
DISL,ioos:station:DISL:BSCA:1,2015-03-01T11:30:00Z,30.3288,-87.8293,1.585,17.7,1111122 
DISL,ioos:station:DISL:BSCA:1,2015-03-01T12:00:00Z,30.3288,-87.8293,1.565,17.72,1111122 
DISL,ioos:station:DISL:BSCA:1,2015-03-01T12:30:00Z,30.3288,-87.8293,1.571,17.75,1111122 
DISL,ioos:station:DISL:BSCA:1,2015-03-01T13:00:00Z,30.3288,-87.8293,1.593,17.74,1111122 
DISL,ioos:station:DISL:BSCA:1,2015-03-01T13:30:00Z,30.3288,-87.8293,1.615,17.73,1111122 
DISL,ioos:station:DISL:BSCA:1,2015-03-01T14:00:00Z,30.3288,-87.8293,1.655,17.74,1111122 
DISL,ioos:station:DISL:BSCA:1,2015-03-01T14:30:00Z,30.3288,-87.8293,1.689,17.71,1111122 
DISL,ioos:station:DISL:BSCA:1,2015-03-01T15:00:00Z,30.3288,-87.8293,1.725,17.64,1111122 
DISL,ioos:station:DISL:BSCA:1,2015-03-01T15:30:00Z,30.3288,-87.8293,1.736,17.59,1111122 
DISL,ioos:station:DISL:BSCA:1,2015-03-01T16:00:00Z,30.3288,-87.8293,1.734,17.53,1111122 
DISL,ioos:station:DISL:BSCA:1,2015-03-01T16:30:00Z,30.3288,-87.8293,1.744,17.55,1111122 
DISL,ioos:station:DISL:BSCA:1,2015-03-01T17:00:00Z,30.3288,-87.8293,1.767,17.53,1111122 
DISL,ioos:station:DISL:BSCA:1,2015-03-01T17:30:00Z,30.3288,-87.8293,1.795,17.61,1111122 
DISL,ioos:station:DISL:BSCA:1,2015-03-01T18:00:00Z,30.3288,-87.8293,1.812,17.61,1111122 
DISL,ioos:station:DISL:BSCA:1,2015-03-01T18:30:00Z,30.3288,-87.8293,1.832,17.6,1111122 
DISL,ioos:station:DISL:BSCA:1,2015-03-01T19:00:00Z,30.3288,-87.8293,1.848,17.61,1111122 
DISL,ioos:station:DISL:BSCA:1,2015-03-01T19:30:00Z,30.3288,-87.8293,1.871,17.59,1111122 
DISL,ioos:station:DISL:BSCA:1,2015-03-01T20:00:00Z,30.3288,-87.8293,1.889,17.55,1111122 
DISL,ioos:station:DISL:BSCA:1,2015-03-01T20:30:00Z,30.3288,-87.8293,1.902,17.53,1111122 
DISL,ioos:station:DISL:BSCA:1,2015-03-01T21:00:00Z,30.3288,-87.8293,1.918,17.5,1111122 
DISL,ioos:station:DISL:BSCA:1,2015-03-01T21:30:00Z,30.3288,-87.8293,1.928,17.49,1111122 
DISL,ioos:station:DISL:BSCA:1,2015-03-01T22:00:00Z,30.3288,-87.8293,1.949,17.48,1111122 
DISL,ioos:station:DISL:BSCA:1,2015-03-01T22:30:00Z,30.3288,-87.8293,1.963,17.46,1111122 
DISL,ioos:station:DISL:BSCA:1,2015-03-01T23:00:00Z,30.3288,-87.8293,1.983,17.52,1111122 
DISL,ioos:station:DISL:BSCA:1,2015-03-01T23:30:00Z,30.3288,-87.8293,1.992,17.55,1111122 
DISL,ioos:station:DISL:BSCA:1,2015-03-02T00:00:00Z,30.3288,-87.8293,2.008,17.59,1111122 
DISL,ioos:station:DISL:BSCA:1,2015-03-02T00:30:00Z,30.3288,-87.8293,2.02,17.57,1111122 
DISL,ioos:station:DISL:BSCA:1,2015-03-02T01:00:00Z,30.3288,-87.8293,2.034,17.62,1111122 
DISL,ioos:station:DISL:BSCA:1,2015-03-02T01:30:00Z,30.3288,-87.8293,2.038,17.62,1111122 
DISL,ioos:station:DISL:BSCA:1,2015-03-02T02:00:00Z,30.3288,-87.8293,2.037,17.65,1111122 
DISL,ioos:station:DISL:BSCA:1,2015-03-02T02:30:00Z,30.3288,-87.8293,2.047,17.65,1111122 
DISL,ioos:station:DISL:BSCA:1,2015-03-02T03:00:00Z,30.3288,-87.8293,2.039,17.59,1111122 
DISL,ioos:station:DISL:BSCA:1,2015-03-02T03:30:00Z,30.3288,-87.8293,2.024,17.59,1111122 
DISL,ioos:station:DISL:BSCA:1,2015-03-02T04:00:00Z,30.3288,-87.8293,1.998,17.66,1111122 
DISL,ioos:station:DISL:BSCA:1,2015-03-02T04:30:00Z,30.3288,-87.8293,1.976,17.61,1111122 
DISL,ioos:station:DISL:BSCA:1,2015-03-02T05:00:00Z,30.3288,-87.8293,1.959,17.6,1111122 
DISL,ioos:station:DISL:BSCA:1,2015-03-02T05:30:00Z,30.3288,-87.8293,1.923,17.54,1111122 
DISL,ioos:station:DISL:BSCA:1,2015-03-02T06:00:00Z,30.3288,-87.8293,1.914,17.57,1111122 
DISL,ioos:station:DISL:BSCA:1,2015-03-02T06:30:00Z,30.3288,-87.8293,1.868,17.58,1111122 
DISL,ioos:station:DISL:BSCA:1,2015-03-02T07:00:00Z,30.3288,-87.8293,1.84,17.59,1111122 
DISL,ioos:station:DISL:BSCA:1,2015-03-02T07:30:00Z,30.3288,-87.8293,1.802,17.6,1111122 
DISL,ioos:station:DISL:BSCA:1,2015-03-02T08:00:00Z,30.3288,-87.8293,1.768,17.62,1111122 
DISL,ioos:station:DISL:BSCA:1,2015-03-02T08:30:00Z,30.3288,-87.8293,1.747,17.64,1111122 
DISL,ioos:station:DISL:BSCA:1,2015-03-02T09:00:00Z,30.3288,-87.8293,1.719,17.66,1111122 
DISL,ioos:station:DISL:BSCA:1,2015-03-02T09:30:00Z,30.3288,-87.8293,1.69,17.64,1111122 
DISL,ioos:station:DISL:BSCA:1,2015-03-02T10:00:00Z,30.3288,-87.8293,1.662,17.65,1111122 
DISL,ioos:station:DISL:BSCA:1,2015-03-02T10:30:00Z,30.3288,-87.8293,1.62,17.67,1111122 
DISL,ioos:station:DISL:BSCA:1,2015-03-02T11:00:00Z,30.3288,-87.8293,1.63,17.67,1111122 
DISL,ioos:station:DISL:BSCA:1,2015-03-02T11:30:00Z,30.3288,-87.8293,1.645,17.67,1111122 
DISL,ioos:station:DISL:BSCA:1,2015-03-02T12:00:00Z,30.3288,-87.8293,1.666,17.67,1111122 
DISL,ioos:station:DISL:BSCA:1,2015-03-02T12:30:00Z,30.3288,-87.8293,1.68,17.63,1111122 
DISL,ioos:station:DISL:BSCA:1,2015-03-02T13:00:00Z,30.3288,-87.8293,1.696,17.56,1111122 
DISL,ioos:station:DISL:BSCA:1,2015-03-02T13:30:00Z,30.3288,-87.8293,1.687,17.62,1111122 
DISL,ioos:station:DISL:BSCA:1,2015-03-02T14:00:00Z,30.3288,-87.8293,1.692,17.65,1111122 
DISL,ioos:station:DISL:BSCA:1,2015-03-02T14:30:00Z,30.3288,-87.8293,1.683,17.65,1111122 
DISL,ioos:station:DISL:BSCA:1,2015-03-02T15:00:00Z,30.3288,-87.8293,1.674,17.78,1111122 
DISL,ioos:station:DISL:BSCA:1,2015-03-02T15:30:00Z,30.3288,-87.8293,1.68,17.75,1111122 
DISL,ioos:station:DISL:BSCA:1,2015-03-02T16:00:00Z,30.3288,-87.8293,1.678,17.75,1111122 
DISL,ioos:station:DISL:BSCA:1,2015-03-02T16:30:00Z,30.3288,-87.8293,1.693,17.82,1111122 
DISL,ioos:station:DISL:BSCA:1,2015-03-02T17:00:00Z,30.3288,-87.8293,1.713,17.71,1111122 
DISL,ioos:station:DISL:BSCA:1,2015-03-02T17:30:00Z,30.3288,-87.8293,1.734,17.69,1111122 
DISL,ioos:station:DISL:BSCA:1,2015-03-02T18:00:00Z,30.3288,-87.8293,1.765,17.73,1111122 
DISL,ioos:station:DISL:BSCA:1,2015-03-02T18:30:00Z,30.3288,-87.8293,1.772,17.72,1111122 
DISL,ioos:station:DISL:BSCA:1,2015-03-02T19:00:00Z,30.3288,-87.8293,1.779,17.73,1111122 
DISL,ioos:station:DISL:BSCA:1,2015-03-02T19:30:00Z,30.3288,-87.8293,1.78,17.71,1111122 
DISL,ioos:station:DISL:BSCA:1,2015-03-02T20:00:00Z,30.3288,-87.8293,1.782,17.73,1111122 
DISL,ioos:station:DISL:BSCA:1,2015-03-02T20:30:00Z,30.3288,-87.8293,1.795,17.78,1111122 
DISL,ioos:station:DISL:BSCA:1,2015-03-02T21:00:00Z,30.3288,-87.8293,1.808,17.74,1111122 
DISL,ioos:station:DISL:BSCA:1,2015-03-02T21:30:00Z,30.3288,-87.8293,1.826,17.76,1111122 
DISL,ioos:station:DISL:BSCA:1,2015-03-02T22:00:00Z,30.3288,-87.8293,1.844,17.78,1111122 
DISL,ioos:station:DISL:BSCA:1,2015-03-02T22:30:00Z,30.3288,-87.8293,1.873,17.79,1111122 
DISL,ioos:station:DISL:BSCA:1,2015-03-02T23:00:00Z,30.3288,-87.8293,1.888,17.79,1111122 
DISL,ioos:station:DISL:BSCA:1,2015-03-02T23:30:00Z,30.3288,-87.8293,1.912,17.81,1111122 
DISL,ioos:station:DISL:BSCA:1,2015-03-03T00:00:00Z,30.3288,-87.8293,1.934,17.84,1111122 
DISL,ioos:station:DISL:BSCA:1,2015-03-03T00:30:00Z,30.3288,-87.8293,1.952,17.89,1111122 
DISL,ioos:station:DISL:BSCA:1,2015-03-03T01:00:00Z,30.3288,-87.8293,1.958,17.91,1111122 
DISL,ioos:station:DISL:BSCA:1,2015-03-03T01:30:00Z,30.3288,-87.8293,1.977,17.91,1111122 
DISL,ioos:station:DISL:BSCA:1,2015-03-03T02:00:00Z,30.3288,-87.8293,1.976,17.89,1111122 
DISL,ioos:station:DISL:BSCA:1,2015-03-03T02:30:00Z,30.3288,-87.8293,1.982,17.87,1111122 
DISL,ioos:station:DISL:BSCA:1,2015-03-03T03:00:00Z,30.3288,-87.8293,1.991,17.84,1111122 
DISL,ioos:station:DISL:BSCA:1,2015-03-03T03:30:00Z,30.3288,-87.8293,1.989,18.01,1111122 
DISL,ioos:station:DISL:BSCA:1,2015-03-03T04:00:00Z,30.3288,-87.8293,1.995,17.88,1111122 
DISL,ioos:station:DISL:BSCA:1,2015-03-03T04:30:00Z,30.3288,-87.8293,1.988,17.83,1111122 
DISL,ioos:station:DISL:BSCA:1,2015-03-03T05:00:00Z,30.3288,-87.8293,1.969,17.85,1111122 
DISL,ioos:station:DISL:BSCA:1,2015-03-03T05:30:00Z,30.3288,-87.8293,1.951,17.94,1111122 
DISL,ioos:station:DISL:BSCA:1,2015-03-03T06:00:00Z,30.3288,-87.8293,1.92,18.14,1111122 
DISL,ioos:station:DISL:BSCA:1,2015-03-03T06:30:00Z,30.3288,-87.8293,1.894,18.01,1111122 
DISL,ioos:station:DISL:BSCA:1,2015-03-03T07:00:00Z,30.3288,-87.8293,1.865,17.91,1111122 
DISL,ioos:station:DISL:BSCA:1,2015-03-03T07:30:00Z,30.3288,-87.8293,1.835,17.87,1111122 
DISL,ioos:station:DISL:BSCA:1,2015-03-03T08:00:00Z,30.3288,-87.8293,1.809,17.89,1111122 
DISL,ioos:station:DISL:BSCA:1,2015-03-03T08:30:00Z,30.3288,-87.8293,1.785,17.8,1111122 
DISL,ioos:station:DISL:BSCA:1,2015-03-03T09:00:00Z,30.3288,-87.8293,1.764,17.88,1111122 
DISL,ioos:station:DISL:BSCA:1,2015-03-03T09:30:00Z,30.3288,-87.8293,1.744,17.94,1111122 
DISL,ioos:station:DISL:BSCA:1,2015-03-03T10:00:00Z,30.3288,-87.8293,1.713,17.73,1111122 
DISL,ioos:station:DISL:BSCA:1,2015-03-03T10:30:00Z,30.3288,-87.8293,1.692,17.7,1111122 
DISL,ioos:station:DISL:BSCA:1,2015-03-03T11:00:00Z,30.3288,-87.8293,1.672,17.68,1111122 
DISL,ioos:station:DISL:BSCA:1,2015-03-03T11:30:00Z,30.3288,-87.8293,1.653,17.7,1111122 
DISL,ioos:station:DISL:BSCA:1,2015-03-03T12:00:00Z,30.3288,-87.8293,1.648,17.63,1111122 
DISL,ioos:station:DISL:BSCA:1,2015-03-03T12:30:00Z,30.3288,-87.8293,1.653,17.54,1111122 
DISL,ioos:station:DISL:BSCA:1,2015-03-03T13:00:00Z,30.3288,-87.8293,1.664,17.55,1111122 
DISL,ioos:station:DISL:BSCA:1,2015-03-03T13:30:00Z,30.3288,-87.8293,1.674,17.53,1111122 
DISL,ioos:station:DISL:BSCA:1,2015-03-03T14:00:00Z,30.3288,-87.8293,1.688,17.52,1111122 
DISL,ioos:station:DISL:BSCA:1,2015-03-03T14:30:00Z,30.3288,-87.8293,1.69,17.65,1111122 
DISL,ioos:station:DISL:BSCA:1,2015-03-03T15:00:00Z,30.3288,-87.8293,1.698,17.58,1111122 
DISL,ioos:station:DISL:BSCA:1,2015-03-03T15:30:00Z,30.3288,-87.8293,1.704,17.67,1111122 
DISL,ioos:station:DISL:BSCA:1,2015-03-03T16:00:00Z,30.3288,-87.8293,1.712,18.37,1111122 
DISL,ioos:station:DISL:BSCA:1,2015-03-03T16:30:00Z,30.3288,-87.8293,1.724,18.38,1111122 
DISL,ioos:station:DISL:BSCA:1,2015-03-03T17:00:00Z,30.3288,-87.8293,1.74,18.01,1111122 
DISL,ioos:station:DISL:BSCA:1,2015-03-03T17:30:00Z,30.3288,-87.8293,1.758,18.34,1111122 
DISL,ioos:station:DISL:BSCA:1,2015-03-03T18:00:00Z,30.3288,-87.8293,1.778,18.38,1111122 
DISL,ioos:station:DISL:BSCA:1,2015-03-03T18:30:00Z,30.3288,-87.8293,1.792,18.45,1111122 
DISL,ioos:station:DISL:BSCA:1,2015-03-03T19:00:00Z,30.3288,-87.8293,1.801,18.45,1111122 
DISL,ioos:station:DISL:BSCA:1,2015-03-03T19:30:00Z,30.3288,-87.8293,1.804,18.46,1111122 
DISL,ioos:station:DISL:BSCA:1,2015-03-03T20:00:00Z,30.3288,-87.8293,1.805,18.28,1111122 
DISL,ioos:station:DISL:BSCA:1,2015-03-03T20:30:00Z,30.3288,-87.8293,1.814,18.11,1111122 
DISL,ioos:station:DISL:BSCA:1,2015-03-03T21:00:00Z,30.3288,-87.8293,1.817,18.1,1111122 
DISL,ioos:station:DISL:BSCA:1,2015-03-03T21:30:00Z,30.3288,-87.8293,1.814,18.05,1111122 
DISL,ioos:station:DISL:BSCA:1,2015-03-03T22:00:00Z,30.3288,-87.8293,1.824,18.08,1111122 
DISL,ioos:station:DISL:BSCA:1,2015-03-03T22:30:00Z,30.3288,-87.8293,1.835,17.22,1111122 
DISL,ioos:station:DISL:BSCA:1,2015-03-03T23:00:00Z,30.3288,-87.8293,1.855,17.48,1111122 
DISL,ioos:station:DISL:BSCA:1,2015-03-03T23:30:00Z,30.3288,-87.8293,1.875,17.89,1111122 
DISL,ioos:station:DISL:BSCA:1,2015-03-04T00:00:00Z,30.3288,-87.8293,1.894,17.44,1111122 
DISL,ioos:station:DISL:BSCA:1,2015-03-04T00:30:00Z,30.3288,-87.8293,1.919,17.55,1111122 
DISL,ioos:station:DISL:BSCA:1,2015-03-04T01:00:00Z,30.3288,-87.8293,1.938,17.23,1111122 
DISL,ioos:station:DISL:BSCA:1,2015-03-04T01:30:00Z,30.3288,-87.8293,1.965,17.17,1111122 
DISL,ioos:station:DISL:BSCA:1,2015-03-04T02:00:00Z,30.3288,-87.8293,1.988,16.93,1111122 
DISL,ioos:station:DISL:BSCA:1,2015-03-04T02:30:00Z,30.3288,-87.8293,2.009,15.49,1111122 
DISL,ioos:station:DISL:BSCA:1,2015-03-04T03:00:00Z,30.3288,-87.8293,2.022,14.0,1111122 
DISL,ioos:station:DISL:BSCA:1,2015-03-04T03:30:00Z,30.3288,-87.8293,2.027,14.75,1111122 
DISL,ioos:station:DISL:BSCA:1,2015-03-04T04:00:00Z,30.3288,-87.8293,2.035,15.66,1111122 
DISL,ioos:station:DISL:BSCA:1,2015-03-04T04:30:00Z,30.3288,-87.8293,2.033,15.42,1111122 
DISL,ioos:station:DISL:BSCA:1,2015-03-04T05:00:00Z,30.3288,-87.8293,2.034,15.46,1111122 
DISL,ioos:station:DISL:BSCA:1,2015-03-04T05:30:00Z,30.3288,-87.8293,2.019,14.93,1111122 
DISL,ioos:station:DISL:BSCA:1,2015-03-04T06:00:00Z,30.3288,-87.8293,2.008,15.1,1111122 
DISL,ioos:station:DISL:BSCA:1,2015-03-04T06:30:00Z,30.3288,-87.8293,1.988,15.13,1111122 
DISL,ioos:station:DISL:BSCA:1,2015-03-04T07:00:00Z,30.3288,-87.8293,1.965,15.21,1111122 
DISL,ioos:station:DISL:BSCA:1,2015-03-04T07:30:00Z,30.3288,-87.8293,1.938,15.11,1111122 
DISL,ioos:station:DISL:BSCA:1,2015-03-04T08:00:00Z,30.3288,-87.8293,1.909,15.17,1111122 
DISL,ioos:station:DISL:BSCA:1,2015-03-04T08:30:00Z,30.3288,-87.8293,1.878,15.81,1111122 
DISL,ioos:station:DISL:BSCA:1,2015-03-04T09:00:00Z,30.3288,-87.8293,1.851,15.78,1111122 
DISL,ioos:station:DISL:BSCA:1,2015-03-04T09:30:00Z,30.3288,-87.8293,1.82,15.81,1111122 
DISL,ioos:station:DISL:BSCA:1,2015-03-04T10:00:00Z,30.3288,-87.8293,1.792,15.82,1111122 
DISL,ioos:station:DISL:BSCA:1,2015-03-04T10:30:00Z,30.3288,-87.8293,1.773,15.9,1111122 
DISL,ioos:station:DISL:BSCA:1,2015-03-04T11:00:00Z,30.3288,-87.8293,1.748,15.99,1111122 
DISL,ioos:station:DISL:BSCA:1,2015-03-04T11:30:00Z,30.3288,-87.8293,1.739,16.03,1111122 
DISL,ioos:station:DISL:BSCA:1,2015-03-04T12:00:00Z,30.3288,-87.8293,1.731,16.0,1111122 
DISL,ioos:station:DISL:BSCA:1,2015-03-04T12:30:00Z,30.3288,-87.8293,1.718,16.04,1111122 
DISL,ioos:station:DISL:BSCA:1,2015-03-04T13:00:00Z,30.3288,-87.8293,1.721,16.01,1111122 
DISL,ioos:station:DISL:BSCA:1,2015-03-04T13:30:00Z,30.3288,-87.8293,1.722,15.99,1111122 
DISL,ioos:station:DISL:BSCA:1,2015-03-04T14:00:00Z,30.3288,-87.8293,1.733,16.21,1111122 
DISL,ioos:station:DISL:BSCA:1,2015-03-04T14:30:00Z,30.3288,-87.8293,1.743,16.25,1111122 
DISL,ioos:station:DISL:BSCA:1,2015-03-04T15:00:00Z,30.3288,-87.8293,1.748,16.12,1111122 
DISL,ioos:station:DISL:BSCA:1,2015-03-04T15:30:00Z,30.3288,-87.8293,1.758,16.49,1111122 
DISL,ioos:station:DISL:BSCA:1,2015-03-04T16:00:00Z,30.3288,-87.8293,1.765,16.5,1111122 
DISL,ioos:station:DISL:BSCA:1,2015-03-04T16:30:00Z,30.3288,-87.8293,1.781,15.06,1111122 
DISL,ioos:station:DISL:BSCA:1,2015-03-04T17:00:00Z,30.3288,-87.8293,1.796,15.22,1111122 
DISL,ioos:station:DISL:BSCA:1,2015-03-04T17:30:00Z,30.3288,-87.8293,1.83,14.44,1111122 
DISL,ioos:station:DISL:BSCA:1,2015-03-04T18:00:00Z,30.3288,-87.8293,1.851,14.59,1111122 
DISL,ioos:station:DISL:BSCA:1,2015-03-04T18:30:00Z,30.3288,-87.8293,1.89,14.08,1111122 
DISL,ioos:station:DISL:BSCA:1,2015-03-04T19:00:00Z,30.3288,-87.8293,1.869,13.92,1111122 
DISL,ioos:station:DISL:BSCA:1,2015-03-04T19:30:00Z,30.3288,-87.8293,1.869,13.98,1111122 
DISL,ioos:station:DISL:BSCA:1,2015-03-04T20:00:00Z,30.3288,-87.8293,1.891,14.0,1111122 
DISL,ioos:station:DISL:BSCA:1,2015-03-04T20:30:00Z,30.3288,-87.8293,1.9,14.03,1111122 
DISL,ioos:station:DISL:BSCA:1,2015-03-04T21:00:00Z,30.3288,-87.8293,1.922,14.09,1111122 
DISL,ioos:station:DISL:BSCA:1,2015-03-04T21:30:00Z,30.3288,-87.8293,1.908,14.03,1111122 
DISL,ioos:station:DISL:BSCA:1,2015-03-04T22:00:00Z,30.3288,-87.8293,1.934,14.0,1111122 
DISL,ioos:station:DISL:BSCA:1,2015-03-04T22:30:00Z,30.3288,-87.8293,1.923,14.03,1111122 
DISL,ioos:station:DISL:BSCA:1,2015-03-04T23:00:00Z,30.3288,-87.8293,1.934,13.98,1111122 
DISL,ioos:station:DISL:BSCA:1,2015-03-04T23:30:00Z,30.3288,-87.8293,1.939,13.9,1111122 
DISL,ioos:station:DISL:BSCA:1,2015-03-05T00:00:00Z,30.3288,-87.8293,1.96,13.91,1111122 
DISL,ioos:station:DISL:BSCA:1,2015-03-05T00:30:00Z,30.3288,-87.8293,1.981,13.9,1111122 
DISL,ioos:station:DISL:BSCA:1,2015-03-05T01:00:00Z,30.3288,-87.8293,1.996,13.87,1111122 
DISL,ioos:station:DISL:BSCA:1,2015-03-05T01:30:00Z,30.3288,-87.8293,2.018,13.81,1111122 
DISL,ioos:station:DISL:BSCA:1,2015-03-05T02:00:00Z,30.3288,-87.8293,2.037,13.89,1111122 
DISL,ioos:station:DISL:BSCA:1,2015-03-05T02:30:00Z,30.3288,-87.8293,2.06,13.82,1111122 
DISL,ioos:station:DISL:BSCA:1,2015-03-05T03:00:00Z,30.3288,-87.8293,2.067,13.97,1111122 
DISL,ioos:station:DISL:BSCA:1,2015-03-05T03:30:00Z,30.3288,-87.8293,2.081,14.25,1111122 
DISL,ioos:station:DISL:BSCA:1,2015-03-05T04:00:00Z,30.3288,-87.8293,2.082,14.19,1111122 
DISL,ioos:station:DISL:BSCA:1,2015-03-05T04:30:00Z,30.3288,-87.8293,2.095,14.12,1111122 
DISL,ioos:station:DISL:BSCA:1,2015-03-05T05:00:00Z,30.3288,-87.8293,2.115,13.87,1111122 
DISL,ioos:station:DISL:BSCA:1,2015-03-05T05:30:00Z,30.3288,-87.8293,2.136,13.78,1111122 
DISL,ioos:station:DISL:BSCA:1,2015-03-05T06:00:00Z,30.3288,-87.8293,2.128,13.89,1111122 
DISL,ioos:station:DISL:BSCA:1,2015-03-05T06:30:00Z,30.3288,-87.8293,2.108,13.9,1111122 
DISL,ioos:station:DISL:BSCA:1,2015-03-05T07:00:00Z,30.3288,-87.8293,2.091,13.83,1111122 
DISL,ioos:station:DISL:BSCA:1,2015-03-05T07:30:00Z,30.3288,-87.8293,2.066,13.82,1111122 
DISL,ioos:station:DISL:BSCA:1,2015-03-05T08:00:00Z,30.3288,-87.8293,2.055,13.83,1111122 
DISL,ioos:station:DISL:BSCA:1,2015-03-05T08:30:00Z,30.3288,-87.8293,2.014,13.78,1111122 
DISL,ioos:station:DISL:BSCA:1,2015-03-05T09:00:00Z,30.3288,-87.8293,1.981,14.25,1111122 
DISL,ioos:station:DISL:BSCA:1,2015-03-05T09:30:00Z,30.3288,-87.8293,1.934,13.74,1111122 
DISL,ioos:station:DISL:BSCA:1,2015-03-05T10:00:00Z,30.3288,-87.8293,1.911,13.81,1111122 
DISL,ioos:station:DISL:BSCA:1,2015-03-05T10:30:00Z,30.3288,-87.8293,1.882,13.86,1111122 
DISL,ioos:station:DISL:BSCA:1,2015-03-05T11:00:00Z,30.3288,-87.8293,1.867,13.96,1111122 
DISL,ioos:station:DISL:BSCA:1,2015-03-05T11:30:00Z,30.3288,-87.8293,1.851,14.02,1111122 
DISL,ioos:station:DISL:BSCA:1,2015-03-05T12:00:00Z,30.3288,-87.8293,1.84,14.39,1111122 
DISL,ioos:station:DISL:BSCA:1,2015-03-05T12:30:00Z,30.3288,-87.8293,1.828,14.24,1111122 
DISL,ioos:station:DISL:BSCA:1,2015-03-05T13:00:00Z,30.3288,-87.8293,1.817,14.31,1111122 
DISL,ioos:station:DISL:BSCA:1,2015-03-05T13:30:00Z,30.3288,-87.8293,1.816,14.38,1111122 
DISL,ioos:station:DISL:BSCA:1,2015-03-05T14:00:00Z,30.3288,-87.8293,1.816,14.79,1111122 
DISL,ioos:station:DISL:BSCA:1,2015-03-05T14:30:00Z,30.3288,-87.8293,1.81,14.8,1111122 
DISL,ioos:station:DISL:BSCA:1,2015-03-05T15:00:00Z,30.3288,-87.8293,1.856,13.36,1111122 
DISL,ioos:station:DISL:BSCA:1,2015-03-05T15:30:00Z,30.3288,-87.8293,1.936,13.72,1111122 
DISL,ioos:station:DISL:BSCA:1,2015-03-05T16:00:00Z,30.3288,-87.8293,2.071,13.54,1111122 
DISL,ioos:station:DISL:BSCA:1,2015-03-05T16:30:00Z,30.3288,-87.8293,2.095,13.49,1111122 
DISL,ioos:station:DISL:BSCA:1,2015-03-05T17:00:00Z,30.3288,-87.8293,2.036,14.18,1111122 
DISL,ioos:station:DISL:BSCA:1,2015-03-05T17:30:00Z,30.3288,-87.8293,1.825,14.35,1111122 
DISL,ioos:station:DISL:BSCA:1,2015-03-05T18:00:00Z,30.3288,-87.8293,1.659,14.79,1111122 
DISL,ioos:station:DISL:BSCA:1,2015-03-05T18:30:00Z,30.3288,-87.8293,1.558,15.39,1111122 
DISL,ioos:station:DISL:BSCA:1,2015-03-05T19:00:00Z,30.3288,-87.8293,1.531,15.09,1111122 
DISL,ioos:station:DISL:BSCA:1,2015-03-05T19:30:00Z,30.3288,-87.8293,1.549,15.08,1111122 
DISL,ioos:station:DISL:BSCA:1,2015-03-05T20:00:00Z,30.3288,-87.8293,1.719,16.12,1111122 
DISL,ioos:station:DISL:BSCA:1,2015-03-05T20:30:00Z,30.3288,-87.8293,1.731,16.37,1111122 
DISL,ioos:station:DISL:BSCA:1,2015-03-05T21:00:00Z,30.3288,-87.8293,1.773,16.57,1111122 
DISL,ioos:station:DISL:BSCA:1,2015-03-05T21:30:00Z,30.3288,-87.8293,1.746,16.75,1111122 
DISL,ioos:station:DISL:BSCA:1,2015-03-05T22:00:00Z,30.3288,-87.8293,1.587,16.89,1111122 
DISL,ioos:station:DISL:BSCA:1,2015-03-05T22:30:00Z,30.3288,-87.8293,1.624,13.09,1111122 
DISL,ioos:station:DISL:BSCA:1,2015-03-05T23:00:00Z,30.3288,-87.8293,1.595,16.94,1111122 
DISL,ioos:station:DISL:BSCA:1,2015-03-05T23:30:00Z,30.3288,-87.8293,1.499,17.15,1111122 
DISL,ioos:station:DISL:BSCA:1,2015-03-06T00:00:00Z,30.3288,-87.8293,1.559,17.52,1111122 
DISL,ioos:station:DISL:BSCA:1,2015-03-06T00:30:00Z,30.3288,-87.8293,1.519,16.99,1111122 
DISL,ioos:station:DISL:BSCA:1,2015-03-06T01:00:00Z,30.3288,-87.8293,1.519,16.49,1111122 
DISL,ioos:station:DISL:BSCA:1,2015-03-06T01:30:00Z,30.3288,-87.8293,1.453,16.48,1111122 
DISL,ioos:station:DISL:BSCA:1,2015-03-06T02:00:00Z,30.3288,-87.8293,1.482,16.57,1111122 
DISL,ioos:station:DISL:BSCA:1,2015-03-06T02:30:00Z,30.3288,-87.8293,1.454,16.88,1111122 
DISL,ioos:station:DISL:BSCA:1,2015-03-06T03:00:00Z,30.3288,-87.8293,1.475,16.82,1111122 
DISL,ioos:station:DISL:BSCA:1,2015-03-06T03:30:00Z,30.3288,-87.8293,1.452,16.8,1111122 
DISL,ioos:station:DISL:BSCA:1,2015-03-06T04:00:00Z,30.3288,-87.8293,1.483,16.7,1111122 
DISL,ioos:station:DISL:BSCA:1,2015-03-06T04:30:00Z,30.3288,-87.8293,1.49,16.67,1111122 
DISL,ioos:station:DISL:BSCA:1,2015-03-06T05:00:00Z,30.3288,-87.8293,1.54,16.74,1111122 
DISL,ioos:station:DISL:BSCA:1,2015-03-06T05:30:00Z,30.3288,-87.8293,1.554,16.81,1111122 
DISL,ioos:station:DISL:BSCA:1,2015-03-06T06:00:00Z,30.3288,-87.8293,1.542,16.8,1111122 
DISL,ioos:station:DISL:BSCA:1,2015-03-06T06:30:00Z,30.3288,-87.8293,1.552,16.77,1111122 
DISL,ioos:station:DISL:BSCA:1,2015-03-06T07:00:00Z,30.3288,-87.8293,1.571,16.63,1111122 
DISL,ioos:station:DISL:BSCA:1,2015-03-06T07:30:00Z,30.3288,-87.8293,1.567,16.58,1111122 
DISL,ioos:station:DISL:BSCA:1,2015-03-06T08:00:00Z,30.3288,-87.8293,1.555,16.56,1111122 
DISL,ioos:station:DISL:BSCA:1,2015-03-06T08:30:00Z,30.3288,-87.8293,1.534,16.86,1111122 
DISL,ioos:station:DISL:BSCA:1,2015-03-06T09:00:00Z,30.3288,-87.8293,1.528,16.54,1111122 
DISL,ioos:station:DISL:BSCA:1,2015-03-06T09:30:00Z,30.3288,-87.8293,1.496,16.59,1111122 
DISL,ioos:station:DISL:BSCA:1,2015-03-06T10:00:00Z,30.3288,-87.8293,1.497,17.33,1111122 
DISL,ioos:station:DISL:BSCA:1,2015-03-06T10:30:00Z,30.3288,-87.8293,1.497,17.55,1111122 
DISL,ioos:station:DISL:BSCA:1,2015-03-06T11:00:00Z,30.3288,-87.8293,1.49,17.66,1111122 
DISL,ioos:station:DISL:BSCA:1,2015-03-06T11:30:00Z,30.3288,-87.8293,1.516,17.71,1111122 
DISL,ioos:station:DISL:BSCA:1,2015-03-06T12:00:00Z,30.3288,-87.8293,1.503,17.14,1111122 
DISL,ioos:station:DISL:BSCA:1,2015-03-06T12:30:00Z,30.3288,-87.8293,1.516,17.26,1111122 
DISL,ioos:station:DISL:BSCA:1,2015-03-06T13:00:00Z,30.3288,-87.8293,1.525,17.61,1111122 
DISL,ioos:station:DISL:BSCA:1,2015-03-06T13:30:00Z,30.3288,-87.8293,1.535,17.83,1111122 
DISL,ioos:station:DISL:BSCA:1,2015-03-06T14:00:00Z,30.3288,-87.8293,1.546,18.07,1111122 